Weather reports worldwide

Advertisment
Thorney Island, United Kingdom (3872): temperature & dewpoint: 16.01.2019 03:00:00 - 22.01.2019 03:00:00 (GMT)Thorney Island, United Kingdom (3872): temperature -20cm & temperature -100cm: 16.01.2019 03:00:00 - 22.01.2019 03:00:00 (GMT)Thorney Island, United Kingdom (3872): wind speed & gusts: 16.01.2019 03:00:00 - 22.01.2019 03:00:00 (GMT)Thorney Island, United Kingdom (3872): wind direction: 16.01.2019 03:00:00 - 22.01.2019 03:00:00 (GMT)Thorney Island, United Kingdom (3872): reduced air pressure: 16.01.2019 03:00:00 - 22.01.2019 03:00:00 (GMT)Thorney Island, United Kingdom (3872): visibility: 16.01.2019 03:00:00 - 22.01.2019 03:00:00 (GMT)Thorney Island, United Kingdom (3872): precipitation: 16.01.2019 03:00:00 - 22.01.2019 03:00:00 (GMT)
Date & Time tt [°C] td [°C] tt -20cm [°C] tt -100cm [°C] ff [km/h] ff [kn] fx [km/h] fx [kn] dd ppp [hPa] vv [km] rr [mm]
22.01.2019 03:00:00 4,8 2,2 - - 26 14 - - WNW 1005,5 30 2,4
22.01.2019 02:00:00 6,4 4,9 - - 41 22 57 31 WSW 1006,5 4,2 4,2
22.01.2019 01:00:00 7,2 6,3 - - 37 20 54 29 SSW 1007,7 6 2,2
22.01.2019 00:00:00 6,9 5,6 - - 39 21 54 29 S 1009,3 5 0,0
21.01.2019 23:00:00 6,9 5,4 - - 39 21 48 26 S 1011,0 10 0,0
21.01.2019 22:00:00 6,6 4,5 - - 37 20 48 26 SSW 1012,9 17 0,0
21.01.2019 21:00:00 6,5 4,1 - - 35 19 46 25 SSW 1014,5 18 0,0
21.01.2019 20:00:00 6,0 3,5 - - 28 15 - - SSW 1015,7 24 0,0
21.01.2019 19:00:00 5,2 2,6 - - 21 11 - - SSW 1017,1 30 0,0
21.01.2019 18:00:00 5,0 2,3 - - 16 9 - - SSW 1018,5 22 0,0
21.01.2019 17:00:00 4,9 1,9 - - 15 8 - - SW 1019,6 20 0,0
21.01.2019 16:00:00 4,9 0,6 - - 13 7 - - SW 1020,1 45 0,0
21.01.2019 15:00:00 4,8 2,5 - - 11 6 - - SSW 1021,2 11 0,0
21.01.2019 14:00:00 4,8 2,6 - - 11 6 - - SSW 1022,0 7 0,0
21.01.2019 13:00:00 4,6 2,2 - - 5 3 - - S 1023,0 6 0,0
21.01.2019 12:00:00 4,3 1,9 - - 4 2 - - SSW 1023,9 5 0,0
21.01.2019 11:00:00 3,2 1,8 - - 5 3 - - NNW 1024,8 5 0,2
21.01.2019 10:00:00 1,4 1,0 - - 5 3 - - NNW 1025,3 3,9 0,0
21.01.2019 09:00:00 -0,6 -1,0 6,2 8,9 5 3 - - NW 1025,1 3,6 0,0
21.01.2019 08:00:00 -1,6 -2,0 - - 2 1 - - NW 1024,8 3,2 0,0
21.01.2019 07:00:00 -2,8 -3,3 - - 5 3 - - NE 1024,8 4,5 0,0
21.01.2019 06:00:00 -3,1 -3,6 - - 5 3 - - NNW 1024,7 4,3 0,0
21.01.2019 05:00:00 -3,0 -3,5 - - 5 3 - - N 1024,6 5 0,0
21.01.2019 04:00:00 -3,7 -4,6 - - 4 2 - - NNE 1024,8 4,3 0,0
21.01.2019 03:00:00 -1,5 -2,1 - - 9 5 - - NNW 1024,8 5 0,0
21.01.2019 02:00:00 -2,3 -2,9 - - 8 4 - - NNW 1024,8 3,0 0,0
21.01.2019 01:00:00 -1,6 -2,3 - - 8 4 - - NNW 1024,6 4,9 0,0
21.01.2019 00:00:00 -1,5 -2,1 - - 8 4 - - NW 1024,6 5 0,0
20.01.2019 23:00:00 -1,1 -2,3 - - 5 3 - - NNW 1024,3 7 0,0
20.01.2019 22:00:00 -0,2 -1,5 - - 8 4 - - NNW 1023,7 9 0,0
20.01.2019 21:00:00 -0,1 -2,1 - - 5 3 - - N 1023,1 10 0,0
20.01.2019 20:00:00 0,5 -1,4 - - 5 3 - - NW 1022,6 10 0,0
20.01.2019 19:00:00 1,1 -1,2 - - 8 4 - - NW 1022,0 10 0,0
20.01.2019 18:00:00 1,9 -1,1 - - 5 3 - - NNW 1021,2 14 0,0
20.01.2019 17:00:00 3,4 -0,9 - - 9 5 - - NNW 1020,6 18 0,0
20.01.2019 16:00:00 4,6 -0,6 - - 9 5 - - N 1019,6 21 0,0
20.01.2019 15:00:00 5,4 0,1 - - 9 5 - - N 1018,7 30 0,0
20.01.2019 14:00:00 5,2 0,0 - - 11 6 - - NE 1018,3 30 0,0
20.01.2019 13:00:00 4,6 -0,1 - - 13 7 - - NE 1018,2 45 0,0
20.01.2019 12:00:00 3,8 -0,4 - - 15 8 - - NNE 1018,1 21 0,0
20.01.2019 11:00:00 2,9 -0,6 - - 16 9 - - NE 1018,0 30 0,0
20.01.2019 10:00:00 2,3 -0,6 - - 15 8 - - NNE 1017,1 27 0,0
20.01.2019 09:00:00 0,6 -1,1 6,9 9,0 11 6 - - NNE 1016,2 17 0,0
20.01.2019 08:00:00 0,8 -1,0 - - 16 9 - - NE 1015,1 15 0,0
20.01.2019 07:00:00 1,0 -0,9 - - 15 8 - - NNE 1014,2 14 0,0
20.01.2019 06:00:00 1,9 -0,1 - - 11 6 - - NNE 1013,4 16 0,0
20.01.2019 05:00:00 2,3 -0,1 - - 11 6 - - N 1012,8 22 0,0
20.01.2019 04:00:00 2,8 0,1 - - 15 8 - - NNE 1012,5 22 0,0
20.01.2019 03:00:00 3,0 0,9 - - 9 5 - - NNE 1012,3 19 0,0
20.01.2019 02:00:00 3,2 1,6 - - 11 6 - - NE 1011,9 15 0,0
20.01.2019 01:00:00 3,6 1,9 - - 15 8 - - NE 1011,5 14 0,0
20.01.2019 00:00:00 3,9 2,4 - - 21 11 - - NE 1010,7 12 0,0
19.01.2019 23:00:00 4,2 2,7 - - 16 9 - - ENE 1010,2 14 0,0
19.01.2019 22:00:00 4,4 2,8 - - 15 8 - - ENE 1009,8 14 0,0
19.01.2019 21:00:00 4,5 3,3 - - 16 9 - - ENE 1009,3 10 0,0
19.01.2019 20:00:00 5,0 3,5 - - 16 9 - - E 1008,7 16 0,0
19.01.2019 19:00:00 5,2 3,9 - - 13 7 - - ENE 1008,4 19 0,0
19.01.2019 18:00:00 5,4 4,2 - - 11 6 - - E 1008,0 18 0,0
19.01.2019 17:00:00 5,5 4,6 - - 8 4 - - E 1007,6 15 0,0
19.01.2019 16:00:00 5,7 4,7 - - 13 7 - - E 1007,3 12 0,2
19.01.2019 15:00:00 5,9 5,1 - - 15 8 - - ESE 1007,1 10 0,0
19.01.2019 14:00:00 6,1 5,1 - - 15 8 - - SE 1007,2 24 0,0
19.01.2019 13:00:00 6,4 4,7 - - 18 10 - - SSE 1007,6 20 0,0
19.01.2019 12:00:00 6,4 4,9 - - 18 10 - - SSE 1008,1 19 0,0
19.01.2019 11:00:00 6,3 4,9 - - 18 10 - - SSE 1008,4 18 0,0
19.01.2019 10:00:00 6,3 4,7 - - 16 9 - - SSE 1008,4 17 0,0
19.01.2019 09:00:00 6,2 4,7 6,7 9,0 16 9 - - S 1008,2 14 0,0
19.01.2019 08:00:00 5,8 4,8 - - 18 10 - - SSE 1008,0 14 0,0
19.01.2019 07:00:00 5,5 4,5 - - 21 11 - - SSE 1008,2 12 0,0
19.01.2019 06:00:00 5,7 4,5 - - 22 12 - - SSE 1008,5 14 0,0
19.01.2019 05:00:00 5,5 4,6 - - 29 16 - - SSE 1008,8 13 0,0
19.01.2019 04:00:00 5,4 4,8 - - 28 15 - - SSE 1009,3 8 0,2
19.01.2019 03:00:00 5,0 4,3 - - 28 15 - - SSE 1009,9 3,4 0,2
19.01.2019 02:00:00 5,2 3,5 - - 28 15 - - SSE 1010,3 14 0,4
19.01.2019 01:00:00 5,3 2,9 - - 29 16 46 25 SSE 1010,8 16 0,0
19.01.2019 00:00:00 5,7 1,8 - - 35 19 46 25 SSE 1011,5 24 0,0
18.01.2019 23:00:00 5,7 1,2 - - 34 18 46 25 SSE 1011,8 22 0,0
18.01.2019 22:00:00 5,8 0,6 - - 34 18 - - SSE 1012,1 27 0,0
18.01.2019 21:00:00 5,7 -0,2 - - 34 18 - - SSE 1012,3 27 0,0
18.01.2019 20:00:00 5,5 -0,1 - - 29 16 - - S 1012,8 29 0,0
18.01.2019 19:00:00 5,2 -0,7 - - 31 17 - - SSE 1012,9 40 0,0
18.01.2019 18:00:00 5,0 -0,5 - - 29 16 - - SSE 1013,4 35 0,0
18.01.2019 17:00:00 5,5 -0,7 - - 29 16 - - SSE 1013,7 35 0,0
18.01.2019 16:00:00 5,6 -1,8 - - 28 15 - - SSE 1014,3 45 0,0
18.01.2019 15:00:00 5,7 -1,0 - - 28 15 - - SSE 1014,8 50 0,0
18.01.2019 14:00:00 5,9 -0,7 - - 28 15 - - S 1015,4 50 0,0
18.01.2019 13:00:00 6,0 0,1 - - 26 14 - - S 1016,1 40 0,0
18.01.2019 12:00:00 6,4 0,5 - - 31 17 - - S 1016,7 40 0,0
18.01.2019 11:00:00 6,0 0,0 - - 29 16 - - S 1017,1 45 0,0
18.01.2019 10:00:00 6,3 0,4 - - 29 16 - - S 1017,2 45 0,0
18.01.2019 09:00:00 5,5 0,4 7,0 9,0 24 13 - - S 1017,2 50 0,0
18.01.2019 08:00:00 1,2 -1,0 - - 9 5 - - E 1017,6 30 0,0
18.01.2019 07:00:00 0,7 -2,2 - - 13 7 - - E 1017,6 35 0,0
18.01.2019 06:00:00 -0,1 -2,4 - - 11 6 - - E 1017,9 40 0,0
18.01.2019 05:00:00 -1,1 -2,3 - - 8 4 - - ENE 1018,4 30 0,0
18.01.2019 04:00:00 -1,5 -2,5 - - 8 4 - - NE 1018,9 26 0,0
18.01.2019 03:00:00 -0,9 -2,4 - - 5 3 - - N 1019,3 26 0,0
18.01.2019 02:00:00 -1,0 -2,5 - - 5 3 - - NE 1019,6 21 0,0
18.01.2019 01:00:00 -0,1 -1,9 - - 5 3 - - WNW 1019,8 25 0,0
18.01.2019 00:00:00 -0,8 -2,9 - - 4 2 - - WNW 1019,8 35 0,0
17.01.2019 23:00:00 -0,1 -2,5 - - 4 2 - - WNW 1019,7 30 0,0
17.01.2019 22:00:00 0,1 -3,0 - - 5 3 - - NNW 1019,3 26 0,0
17.01.2019 21:00:00 1,1 -2,4 - - 9 5 - - NW 1019,0 29 0,0
17.01.2019 20:00:00 1,3 -2,6 - - 8 4 - - NW 1018,7 30 0,0
17.01.2019 19:00:00 1,4 -2,8 - - 11 6 - - NW 1018,1 28 0,0
17.01.2019 18:00:00 1,9 -3,4 - - 9 5 - - WNW 1017,9 40 0,0
17.01.2019 17:00:00 2,5 -3,4 - - 13 7 - - WNW 1017,2 50 0,0
17.01.2019 16:00:00 4,4 -4,0 - - 18 10 - - NNW 1016,0 50 0,0
17.01.2019 15:00:00 5,1 -4,0 - - 22 12 - - NW 1015,5 50 0,0
17.01.2019 14:00:00 5,1 -3,8 - - 24 13 - - NW 1014,9 30 0,0
17.01.2019 13:00:00 4,8 -3,9 - - 18 10 - - NW 1014,3 30 0,0
17.01.2019 12:00:00 4,8 -1,3 - - 22 12 - - NNW 1013,9 27 0,0
17.01.2019 11:00:00 3,9 -2,4 - - 18 10 46 25 N 1013,2 50 0,0
17.01.2019 10:00:00 4,2 0,8 - - 16 9 - - N 1011,8 45 0,0
17.01.2019 09:00:00 3,2 1,8 7,7 9,2 15 8 - - NW 1010,1 35 0,0
17.01.2019 08:00:00 2,4 1,1 - - 11 6 - - WNW 1008,8 50 0,0
17.01.2019 07:00:00 2,7 1,3 - - 13 7 - - NW 1007,8 50 0,0
17.01.2019 06:00:00 3,3 1,8 - - 21 11 - - WNW 1006,6 45 0,0
17.01.2019 05:00:00 4,1 2,6 - - 18 10 - - NW 1005,5 50 0,0
17.01.2019 04:00:00 4,6 3,1 - - 22 12 - - NW 1004,4 18 0,2
17.01.2019 03:00:00 5,0 3,4 - - 16 9 - - WNW 1003,6 30 0,0
17.01.2019 02:00:00 4,8 3,3 - - 15 8 - - W 1003,0 28 0,0
17.01.2019 01:00:00 5,9 4,5 - - 13 7 - - WSW 1002,9 25 0,0
17.01.2019 00:00:00 6,0 3,9 - - 21 11 - - SW 1003,3 35 0,0
16.01.2019 23:00:00 5,5 4,4 - - 13 7 - - SSW 1003,6 25 0,0
16.01.2019 22:00:00 5,2 4,3 - - 11 6 - - WSW 1004,3 27 0,0
16.01.2019 21:00:00 5,7 4,5 - - 13 7 - - WSW 1004,5 40 0,0
16.01.2019 20:00:00 6,0 4,7 - - 18 10 - - W 1004,5 45 0,0
16.01.2019 19:00:00 5,6 4,2 - - 11 6 - - W 1004,3 45 0,0
16.01.2019 18:00:00 5,8 4,3 - - 11 6 - - WNW 1004,0 50 0,0
16.01.2019 17:00:00 6,2 4,5 - - 13 7 48 26 NW 1003,6 50 0,6
16.01.2019 16:00:00 8,4 6,6 - - 35 19 48 26 WNW 1002,8 13 0,6
16.01.2019 15:00:00 9,4 8,4 - - 29 16 48 26 SW 1002,8 14 0,2
16.01.2019 14:00:00 8,5 8,1 - - 35 19 48 26 SW 1003,4 4,5 1,2
16.01.2019 13:00:00 8,7 7,8 - - 37 20 52 28 SW 1004,3 9 0,0
16.01.2019 12:00:00 8,2 7,4 - - 44 24 55 30 SSW 1005,5 4,2 0,0
16.01.2019 11:00:00 8,3 7,4 - - 34 18 48 26 SSW 1006,7 8 0,2
16.01.2019 10:00:00 8,6 7,1 - - 34 18 48 26 SW 1007,5 11 0,0
16.01.2019 09:00:00 8,4 7,0 7,7 9,2 35 19 46 25 SW 1007,9 8 0,0
16.01.2019 08:00:00 8,4 7,0 - - 31 17 46 25 SW 1008,3 12 0,0
16.01.2019 07:00:00 8,0 7,3 - - 34 18 - - SW 1008,9 11 0,0
16.01.2019 06:00:00 8,0 7,3 - - 34 18 - - SW 1009,7 6 0,0
16.01.2019 05:00:00 8,1 7,0 - - 34 18 48 26 SW 1010,4 12 0,0
16.01.2019 04:00:00 8,1 6,8 - - 34 18 48 26 SW 1011,4 17 0,0
16.01.2019 03:00:00 7,8 7,2 - - 24 13 - - SW 1012,6 2,4 0,2

tt = temperature
td = dewpoint
tt -20cm = temperature -20cm
tt -100cm = temperature -100cm
ff = wind speed
fx = gusts
dd = wind direction
ppp = reduced air pressure
vv = visibility
rr = precipitation

Next stations